Temp
64 64 64 63 63 61 61 60 59 58 58 58 57 58 57 59 58 59 58 60 59 57 57 56 56 57 56 56 57 56 56 57 61 59 62 63 65 65 66 67 67 64 64
64 62 62 61 59 58 58 59 58 58 57 57 58 59 58 59 59 58 57 57 57 57 55 53 53 54 54 55 55 55 54 54 56 54 55 55 59 63 65 65 64 62 62
62 60 59 57 57 56 55 56 56 57 55 55 57 57 59 59 57 57 57 57 56 56 53 53 53 52 52 51 51 52 51 49 53 55 54 52 52 57 62 64 66 64 64
60 59 57 55 56 55 57 57 57 56 55 54 52 51 51 50 52 53 53 55 55 53 52 51 51 51 51 50 50 51 50 50 48 52 57 54 55 53 53 59 62 65 65
58 55 54 55 56 55 55 56 57 55 54 53 51 49 48 48 50 49 49 49 50 50 49 48 49 48 49 48 48 48 48 49 48 49 49 51 54 55 54 52 57 61 63
55 54 55 56 55 55 54 54 54 53 52 51 50 48 46 47 47 46 45 45 46 46 46 45 46 47 46 46 46 47 47 47 48 49 49 49 48 49 50 50 52 53 59
53 53 54 54 53 52 51 52 53 50 49 48 48 46 46 46 45 43 43 42 42 43 43 44 43 44 45 45 46 46 46 46 45 45 46 48 48 51 50 49 51 52 56
52 53 53 54 53 51 48 49 50 48 47 46 46 45 45 44 44 43 43 42 41 42 43 43 43 44 44 44 44 44 44 44 43 43 42 43 46 46 48 47 46 46 49
50 50 51 52 52 50 46 46 47 47 46 45 45 44 44 43 43 43 43 42 42 43 42 42 42 43 43 43 43 42 41 42 41 40 41 40 40 42 43 44 44 44 42
50 51 53 52 51 49 46 46 45 44 45 44 44 44 44 44 43 43 41 41 41 41 41 41 42 41 41 42 42 41 41 40 39 40 39 38 38 39 40 40 42 42 42
50 51 53 53 51 49 46 44 44 44 43 44 44 43 43 44 43 42 42 41 41 42 41 42 41 40 39 40 41 40 40 38 38 38 37 36 37 37 37 38 40 41 41
52 53 54 53 50 48 47 44 44 44 44 44 45 44 45 45 44 42 42 42 42 42 42 42 41 39 37 38 38 39 40 38 37 37 36 35 37 36 36 37 36 37 38
53 53 54 51 49 47 46 44 44 45 46 47 46 44 44 43 42 42 42 42 42 42 42 41 39 37 36 36 37 40 39 38 37 37 35 34 34 33 35 35 34 35 37
52 53 53 51 48 46 45 44 43 45 46 46 44 42 42 42 41 42 41 41 41 40 40 39 37 36 34 35 36 39 38 37 37 36 37 34 32 32 34 35 34 34 34
52 53 52 49 46 45 45 45 44 45 46 43 42 40 41 41 40 39 39 39 38 38 39 38 35 34 33 34 33 37 35 34 33 33 34 33 33 34 35 34 33 32 32
52 53 52 48 45 44 44 44 45 45 45 42 40 41 39 39 37 37 36 36 35 34 34 34 33 30 33 32 34 36 35 33 30 27 28 31 30 30 34 35 34 32 30
51 51 49 47 45 44 44 43 44 45 43 40 40 38 37 35 34 35 34 32 31 31 30 30 31 28 29 31 33 35 32 30 28 25 24 27 29 29 28 30 31 31 33
50 49 46 43 42 43 43 44 45 42 40 37 37 36 35 34 32 31 30 30 30 28 27 27 27 27 29 31 31 32 30 30 28 26 24 23 24 27 27 25 25 24 27
46 40 42 38 38 39 42 43 42 40 37 34 33 32 32 30 30 26 28 29 30 28 27 27 26 24 25 31 30 27 27 26 25 25 24 24 23 30 30 22 21 21 22
39 37 35 35 35 35 40 40 39 37 33 34 32 32 31 27 24 28 26 29 30 28 30 27 26 28 23 30 30 26 23 23 23 22 22 28 27 29 29 21 20 18 20
35 35 34 32 32 35 35 33 33 30 33 35 34 33 33 31 31 29 29 28 28 28 29 28 25 24 24 24 30 29 22 22 22 21 21 22 29 29 29 28 22 21 21
33 34 32 32 34 37 35 30 28 31 33 32 31 29 31 32 32 29 30 30 29 26 26 26 24 23 22 27 27 28 27 27 21 20 21 22 29 28 28 25 27 25 20
33 33 33 33 37 38 37 33 33 33 32 30 26 28 31 32 32 30 28 29 28 27 26 24 22 20 21 21 26 27 27 26 21 23 26 28 28 27 24 27 26 21 18
33 35 37 37 37 40 40 37 37 37 35 32 32 33 32 32 32 30 28 25 24 24 24 23 20 19 19 20 21 21 21 22 22 20 20 19 24 19 17 20 21 19 18
34 37 38 39 39 42 40 40 40 41 38 36 34 32 31 28 26 26 26 24 22 24 21 20 21 17 16 20 25 24 20 21 22 18 17 16 17 17 17 17 18 18 17
35 37 38 38 39 40 40 41 42 40 37 35 33 33 32 30 27 25 23 27 26 26 26 26 23 20 24 27 27 27 28 28 28 19 17 16 16 16 16 15 15 16 16
MSLP
1015.56 1016.33 1016.93 1017.34 1017.40 1017.70 1017.79 1017.89 1018.04 1018.26 1017.96 1017.39 1017.18 1016.83 1016.64 1016.38 1016.64 1016.68 1016.70 1016.43 1016.30 1016.42 1016.31 1016.22 1015.98 1015.73 1015.50 1015.33 1015.07 1014.76 1014.18 1013.57 1013.04 1012.19 1011.14 1010.28 1010.18 1010.15 1010.10 1009.55 1009.05 1009.06 1007.12
1015.14 1016.28 1017.05 1017.60 1018.01 1018.22 1018.26 1018.35 1018.54 1018.49 1018.54 1018.30 1017.76 1017.30 1016.95 1016.59 1016.60 1016.76 1017.10 1017.24 1017.09 1017.00 1017.04 1017.07 1016.86 1016.71 1016.27 1015.94 1015.86 1015.53 1014.95 1014.51 1014.28 1013.75 1012.54 1010.94 1009.88 1009.43 1009.23 1009.01 1009.08 1008.87 1008.14
1015.22 1016.20 1017.11 1018.13 1018.61 1018.81 1018.93 1018.73 1018.90 1018.90 1019.22 1019.13 1018.53 1018.09 1017.32 1017.01 1017.12 1017.11 1017.37 1017.37 1017.55 1017.69 1017.67 1017.70 1017.30 1017.20 1016.97 1016.56 1016.47 1016.19 1015.94 1015.38 1015.00 1014.77 1014.36 1012.56 1011.32 1010.71 1009.36 1009.25 1009.27 1009.36 1009.50
1015.87 1016.60 1017.71 1018.40 1018.56 1018.87 1019.18 1019.13 1018.93 1019.31 1019.70 1019.88 1019.66 1019.23 1018.89 1018.72 1018.62 1018.33 1018.39 1018.01 1017.96 1018.13 1018.30 1018.19 1017.87 1017.59 1017.39 1017.11 1017.02 1016.74 1016.42 1016.14 1015.46 1015.03 1014.44 1014.28 1013.94 1012.42 1010.62 1009.52 1009.37 1009.07 1008.94
1015.82 1017.13 1018.16 1018.39 1018.75 1019.03 1019.21 1019.27 1019.07 1019.57 1020.13 1020.37 1020.33 1020.13 1020.01 1020.02 1019.74 1019.65 1019.36 1019.13 1019.11 1019.04 1019.09 1018.98 1018.46 1018.04 1017.81 1017.75 1017.42 1017.04 1016.72 1016.39 1016.06 1015.61 1015.12 1014.62 1013.81 1013.33 1012.41 1010.74 1009.55 1009.24 1008.81
1016.45 1017.60 1018.29 1018.48 1018.84 1019.23 1019.41 1019.56 1019.48 1019.91 1020.61 1020.90 1020.94 1020.95 1020.82 1020.50 1020.29 1020.27 1020.13 1020.12 1019.87 1019.95 1019.90 1019.79 1019.24 1018.69 1018.37 1018.13 1017.75 1017.28 1017.02 1016.61 1016.20 1015.86 1015.54 1015.01 1014.45 1013.73 1013.51 1012.48 1011.24 1010.55 1009.16
1016.43 1017.33 1017.83 1018.35 1018.90 1019.27 1019.88 1019.92 1020.03 1020.47 1020.97 1021.25 1021.43 1021.53 1021.42 1021.34 1021.08 1021.15 1020.99 1020.85 1020.47 1020.48 1020.67 1020.21 1019.76 1019.23 1018.74 1018.34 1017.84 1017.64 1017.20 1016.78 1016.65 1016.41 1015.94 1015.42 1014.97 1014.63 1014.21 1013.55 1012.13 1010.72 1009.46
1016.24 1017.11 1017.82 1018.33 1018.82 1019.50 1020.37 1020.58 1020.70 1021.07 1021.61 1021.82 1021.86 1021.97 1021.86 1021.83 1021.86 1021.74 1021.62 1021.38 1021.17 1020.94 1021.01 1020.62 1020.05 1019.51 1019.06 1018.61 1018.24 1017.95 1017.75 1017.39 1017.08 1016.69 1016.65 1016.18 1015.66 1015.32 1014.69 1014.28 1013.46 1011.64 1010.37
1016.03 1017.01 1017.87 1018.43 1018.92 1019.73 1020.75 1021.08 1021.38 1021.53 1021.90 1022.03 1022.21 1022.36 1022.27 1022.17 1022.22 1022.16 1022.04 1021.83 1021.65 1021.40 1021.29 1020.93 1020.42 1019.65 1019.10 1018.84 1018.59 1018.45 1018.14 1017.77 1017.19 1017.28 1017.18 1017.12 1016.60 1015.88 1015.41 1014.98 1014.60 1013.65 1011.57
1015.72 1016.69 1017.27 1018.17 1018.98 1020.02 1020.78 1021.31 1021.77 1022.07 1022.25 1022.32 1022.42 1022.44 1022.34 1022.48 1022.58 1022.55 1022.41 1022.20 1022.14 1021.90 1021.50 1021.09 1020.70 1020.08 1019.56 1018.85 1018.82 1018.73 1018.26 1018.24 1018.22 1018.07 1017.99 1017.61 1016.97 1016.23 1015.82 1015.28 1014.66 1014.07 1013.14
1015.42 1016.19 1016.90 1017.95 1018.86 1019.85 1020.64 1021.34 1021.81 1022.10 1022.24 1022.50 1022.69 1022.53 1022.51 1022.52 1022.83 1022.89 1022.70 1022.55 1022.38 1022.07 1021.69 1021.34 1021.07 1020.61 1020.02 1019.44 1019.34 1019.34 1019.54 1019.04 1018.80 1018.77 1018.28 1017.95 1017.48 1016.95 1016.38 1015.60 1014.76 1013.97 1013.18
1015.09 1015.86 1016.53 1017.59 1018.72 1019.70 1020.54 1021.41 1021.90 1022.12 1022.14 1022.26 1022.45 1022.51 1022.53 1022.35 1022.69 1022.88 1022.76 1022.47 1022.24 1022.06 1021.67 1021.40 1021.39 1021.24 1020.63 1020.37 1020.26 1020.05 1019.48 1019.43 1019.19 1018.75 1018.85 1018.64 1018.23 1017.57 1016.83 1016.04 1015.53 1014.76 1013.93
1014.22 1015.29 1016.07 1017.25 1018.46 1019.65 1020.52 1021.35 1021.81 1021.95 1022.01 1021.92 1022.17 1022.51 1022.80 1022.68 1022.95 1023.10 1023.00 1022.82 1022.54 1022.41 1022.09 1022.14 1022.02 1022.07 1021.66 1021.25 1021.22 1020.53 1020.31 1020.08 1019.90 1019.64 1019.68 1019.62 1019.02 1018.14 1017.27 1016.62 1016.13 1015.40 1014.58
1013.59 1014.67 1015.85 1017.08 1018.45 1019.78 1020.65 1021.44 1021.73 1021.93 1021.97 1022.12 1022.50 1022.94 1023.15 1023.21 1023.41 1023.56 1023.51 1023.38 1023.14 1023.12 1022.86 1022.94 1023.08 1022.90 1022.90 1022.45 1022.05 1021.07 1021.32 1020.85 1020.87 1020.49 1020.26 1020.44 1019.80 1019.01 1017.95 1017.30 1016.76 1016.09 1015.28
1013.30 1014.30 1015.68 1017.09 1018.67 1019.70 1020.56 1021.18 1021.73 1021.87 1022.07 1022.42 1023.00 1023.32 1023.57 1023.84 1023.95 1024.12 1024.14 1024.14 1024.07 1023.96 1023.62 1023.73 1024.08 1024.06 1023.98 1023.62 1022.92 1021.97 1021.78 1021.59 1021.61 1021.42 1021.17 1020.95 1020.70 1019.93 1019.02 1018.29 1017.65 1017.03 1016.24
1012.64 1013.77 1015.48 1017.31 1018.78 1019.81 1020.59 1021.17 1021.49 1021.78 1022.23 1022.72 1023.28 1023.75 1024.16 1024.48 1024.64 1024.76 1024.90 1025.00 1024.97 1025.06 1024.99 1024.88 1025.06 1025.13 1024.75 1024.34 1023.53 1022.43 1022.34 1022.40 1022.61 1022.65 1022.40 1021.71 1021.33 1020.86 1019.96 1019.20 1018.68 1018.17 1017.40
1012.22 1013.85 1015.55 1017.44 1018.77 1019.97 1020.78 1021.29 1021.54 1021.93 1022.56 1023.17 1023.73 1024.38 1024.85 1025.14 1025.39 1025.48 1025.63 1025.75 1025.80 1025.90 1025.94 1026.01 1025.89 1025.90 1025.48 1024.85 1024.07 1023.09 1023.13 1023.33 1023.57 1023.57 1023.32 1022.77 1022.27 1021.54 1020.85 1020.14 1019.73 1019.11 1018.44
1012.30 1014.14 1015.99 1017.79 1019.39 1020.69 1021.19 1021.48 1021.62 1022.35 1023.14 1023.79 1024.35 1024.83 1025.23 1025.53 1025.89 1026.10 1026.18 1026.21 1026.26 1026.38 1026.51 1026.72 1026.73 1026.50 1026.06 1025.48 1024.79 1024.22 1024.11 1023.98 1023.93 1024.05 1024.04 1023.58 1022.97 1022.18 1021.44 1020.98 1020.46 1019.97 1019.40
1013.33 1014.96 1016.73 1018.60 1020.25 1021.29 1021.58 1021.69 1022.17 1022.83 1023.70 1024.50 1025.10 1025.61 1026.01 1026.25 1026.49 1026.69 1026.69 1026.58 1026.52 1026.69 1026.97 1027.16 1027.32 1027.15 1026.86 1026.27 1025.90 1025.58 1025.16 1024.88 1024.82 1024.94 1024.68 1024.31 1023.75 1022.91 1022.21 1021.93 1021.35 1020.85 1020.14
1014.93 1016.25 1017.86 1019.39 1020.66 1021.59 1021.95 1022.18 1022.64 1023.26 1024.12 1024.79 1025.46 1025.99 1026.44 1026.67 1026.84 1026.95 1026.94 1026.83 1026.80 1026.93 1027.15 1027.48 1027.62 1027.72 1027.70 1026.89 1026.46 1026.45 1026.35 1025.86 1025.78 1025.61 1025.64 1024.75 1024.21 1023.78 1023.03 1022.87 1022.40 1021.56 1020.94
1016.08 1017.36 1018.69 1019.93 1021.07 1021.78 1022.20 1022.85 1023.45 1024.26 1024.71 1025.08 1025.49 1026.08 1026.49 1026.75 1026.95 1027.08 1026.99 1026.94 1026.99 1027.10 1027.27 1027.65 1028.06 1028.30 1028.23 1028.00 1027.08 1026.84 1026.89 1026.57 1026.49 1026.30 1025.93 1025.42 1024.81 1024.43 1023.67 1023.14 1022.93 1022.83 1022.38
1017.30 1018.33 1019.16 1020.43 1021.36 1022.07 1022.63 1023.46 1024.08 1024.45 1024.86 1025.51 1026.04 1026.31 1026.45 1026.75 1027.02 1027.02 1027.02 1027.05 1027.11 1027.37 1027.67 1027.96 1028.41 1028.84 1028.96 1028.42 1028.02 1027.55 1027.46 1027.20 1026.89 1026.66 1026.48 1026.02 1025.32 1024.94 1024.26 1023.93 1023.78 1023.43 1023.04
1018.06 1019.02 1019.64 1020.49 1021.30 1021.90 1022.59 1023.35 1024.08 1024.62 1025.20 1025.77 1026.29 1026.50 1026.62 1026.74 1027.05 1027.14 1027.28 1027.41 1027.56 1027.86 1028.14 1028.56 1028.92 1029.30 1029.55 1029.46 1028.92 1028.43 1027.99 1027.78 1027.55 1027.06 1026.64 1026.19 1025.79 1025.43 1025.06 1024.44 1024.11 1024.17 1023.72
1018.36 1018.99 1019.63 1020.21 1020.73 1021.34 1022.03 1022.87 1023.56 1024.27 1024.94 1025.47 1025.87 1026.15 1026.40 1026.74 1027.06 1027.58 1028.12 1028.37 1028.56 1028.71 1029.00 1029.21 1029.62 1029.88 1029.91 1029.67 1029.40 1029.14 1028.78 1028.20 1027.70 1027.30 1027.09 1026.74 1026.08 1025.93 1025.95 1025.35 1024.91 1024.78 1024.59
1018.33 1018.93 1019.38 1019.75 1020.24 1020.82 1021.55 1022.33 1022.93 1023.39 1024.09 1024.89 1025.59 1026.16 1026.65 1027.42 1028.00 1028.41 1028.72 1029.27 1029.62 1029.65 1029.84 1030.04 1030.20 1030.34 1030.29 1029.95 1029.46 1028.92 1028.58 1028.11 1027.77 1027.58 1027.47 1027.09 1026.75 1026.43 1026.20 1025.96 1025.73 1025.43 1025.23
1018.36 1019.00 1019.40 1019.83 1020.42 1021.03 1021.62 1022.04 1022.55 1023.28 1024.04 1024.78 1025.35 1025.73 1026.13 1026.89 1027.78 1028.48 1029.30 1029.66 1029.91 1029.98 1030.14 1030.30 1030.56 1030.86 1030.52 1030.04 1029.56 1028.91 1028.16 1027.97 1027.67 1027.63 1027.73 1027.57 1027.35 1027.01 1026.77 1026.65 1026.42 1026.02 1025.70
Wind_Speed
7 5 5 7 8 10 11 11 10 11 9 6 7 6 6 3 4 6 11 11 10 11 10 8 8 9 8 8 9 9 11 8 8 7 9 4 5 8 8 9 10 9 5
9 7 5 8 8 9 10 10 11 11 10 9 7 5 2 3 3 4 6 9 10 9 9 9 8 10 7 8 8 9 8 6 9 6 7 4 4 3 5 4 5 6 4
4 7 8 8 6 6 7 8 10 11 11 12 8 8 6 5 6 6 6 6 8 8 9 10 9 9 8 6 8 8 9 8 8 7 5 5 3 11 4 4 7 9 7
6 7 6 5 5 7 7 7 7 10 10 10 10 11 9 6 7 8 9 8 9 9 11 11 10 9 8 8 7 7 7 7 8 7 5 8 8 5 8 3 8 7 7
6 8 5 4 7 6 6 7 7 10 9 9 9 7 8 6 6 7 9 11 10 13 13 12 10 10 8 9 9 8 7 5 6 6 6 7 6 8 6 10 7 9 7
9 7 5 5 5 6 7 6 7 10 10 9 10 10 10 9 8 9 7 6 7 7 10 12 10 9 9 9 9 8 9 7 7 7 6 6 5 6 5 8 13 13 11
10 8 7 6 5 8 7 6 8 9 10 9 9 9 9 9 8 8 7 8 6 7 8 9 9 8 9 9 10 9 8 8 7 8 7 7 7 7 6 8 11 10 10
9 8 6 5 5 10 7 7 8 9 9 8 8 7 8 6 6 7 6 5 6 6 9 9 8 8 8 8 8 6 7 7 7 10 9 7 7 8 7 6 8 11 10
11 9 7 5 5 8 7 7 7 8 7 7 6 7 6 7 6 8 7 6 7 8 9 9 9 9 9 9 8 6 7 8 9 9 10 8 7 7 7 6 7 7 6
13 12 10 9 8 6 8 6 5 6 6 6 5 5 6 7 6 6 7 8 7 8 8 9 10 10 10 11 10 8 10 10 7 7 9 9 8 8 7 7 6 6 7
14 12 9 9 8 8 8 6 5 5 5 6 5 5 5 6 6 6 6 6 7 7 8 8 9 11 12 13 10 9 7 8 9 8 10 12 11 8 7 7 7 6 7
14 12 12 11 10 7 7 7 5 4 4 5 4 5 5 6 6 5 6 4 5 6 8 10 11 12 13 13 13 10 11 11 11 11 12 14 10 10 10 7 10 8 8
15 13 12 10 9 8 7 7 5 4 4 4 5 6 6 7 7 7 7 8 9 10 11 12 13 14 14 14 13 10 11 11 12 12 12 14 14 13 10 9 9 9 8
16 14 11 10 9 8 8 7 6 3 5 6 6 6 6 7 7 7 8 8 10 10 10 12 14 13 14 14 13 11 11 12 12 12 11 14 16 15 13 11 12 11 10
16 13 11 11 10 9 7 7 7 6 6 7 6 5 7 7 8 7 8 9 10 11 11 12 13 14 13 11 13 9 9 11 13 14 13 14 22 26 20 10 11 13 11
15 14 12 14 12 10 9 8 7 7 6 7 7 7 8 8 8 8 9 9 10 11 12 12 13 14 11 22 22 13 10 12 13 13 14 13 20 21 23 23 22 17 13
16 15 13 12 11 8 8 7 7 8 8 8 8 8 7 8 8 8 8 9 10 10 10 11 11 13 14 26 24 16 9 10 11 13 13 13 13 19 15 19 20 19 22
17 15 13 13 11 7 7 7 8 9 8 8 8 8 7 7 8 7 7 6 6 7 8 9 11 11 13 26 25 22 9 8 11 12 14 14 15 19 19 16 14 13 13
12 13 15 14 11 8 7 7 8 9 10 9 8 8 7 7 7 5 5 5 6 5 6 6 8 11 11 25 25 17 11 10 11 12 12 13 12 26 27 15 15 14 13
16 17 15 13 11 7 3 7 7 9 7 9 9 8 7 5 4 4 3 4 5 4 5 7 8 17 11 23 24 18 8 10 8 9 10 21 19 25 26 13 13 15 15
18 17 15 12 10 6 6 6 9 8 7 7 8 8 8 6 6 4 3 3 3 3 5 7 9 10 13 14 24 23 9 8 7 7 8 7 23 23 25 23 15 17 13
17 15 14 12 10 11 11 9 7 5 9 9 7 4 5 5 4 3 3 4 3 4 5 6 7 8 9 20 20 22 20 16 6 6 5 7 21 22 24 17 26 25 13
13 13 13 14 12 13 12 12 11 11 10 8 5 5 4 5 6 6 6 5 6 5 6 6 6 7 7 7 18 20 19 15 6 5 13 18 18 19 13 24 24 15 11
12 12 14 14 13 13 13 12 13 13 12 11 9 7 6 6 6 8 7 7 7 6 7 6 6 6 6 6 5 4 6 8 7 4 5 6 10 7 7 9 11 10 10
11 12 12 12 13 12 12 13 13 12 10 9 9 8 8 8 7 7 7 6 6 6 5 5 5 5 5 6 12 10 3 6 6 3 3 3 4 6 7 8 9 8 9
11 10 9 10 10 11 10 10 9 10 9 8 6 5 5 8 8 8 6 11 11 11 12 12 7 3 8 12 16 17 13 16 17 5 6 7 9 9 10 10 10 10 12
Wind_Direction
123 111 83 75 52 43 28 28 30 25 13 16 22 360 359 48 41 22 21 16 32 28 23 4 2 9 358 352 348 346 340 335 331 313 329 294 222 236 242 251 237 216 211
159 123 91 70 54 36 23 29 26 24 16 357 1 352 350 41 43 93 50 34 16 34 17 3 5 358 347 355 353 349 336 322 6 332 291 302 331 245 275 264 257 257 241
137 132 98 63 40 41 30 25 25 17 25 1 8 359 346 3 22 18 31 24 39 26 30 2 3 358 355 354 356 346 352 329 331 341 320 328 324 338 301 295 241 237 211
155 100 81 83 61 55 51 35 31 44 25 21 11 5 3 8 1 11 0 3 26 28 28 7 359 357 351 353 346 348 338 337 327 332 334 326 323 318 313 326 327 256 231
119 112 126 111 85 58 46 38 38 55 38 28 22 13 12 3 348 9 350 9 1 12 18 360 359 357 354 344 345 342 342 329 325 325 318 309 294 293 283 296 325 326 332
138 146 140 120 93 75 56 41 33 55 40 25 25 18 8 8 2 1 2 0 1 7 11 359 350 358 351 344 339 341 335 328 325 322 319 319 330 338 311 306 300 301 304
154 164 147 129 90 82 53 34 42 51 41 35 28 22 14 11 13 14 5 3 6 4 1 353 356 355 346 347 342 337 346 355 355 340 337 336 334 315 305 301 295 296 303
156 155 138 118 102 87 59 40 34 51 41 30 30 32 28 18 25 19 12 11 12 6 2 355 349 357 353 355 353 1 4 360 7 3 1 339 338 347 340 321 308 301 289
165 157 152 142 123 89 78 55 35 48 45 40 35 36 34 38 28 34 16 23 18 14 7 1 357 9 11 14 12 13 12 20 14 13 4 6 344 341 335 325 320 318 309
167 173 171 152 118 111 103 88 65 54 51 51 43 52 42 40 36 40 29 30 25 16 14 7 6 19 15 18 20 13 18 20 20 23 12 6 349 348 338 331 314 301 286
174 178 159 151 131 131 118 106 90 78 68 59 50 54 53 49 45 39 38 32 31 17 12 17 24 26 17 15 17 18 22 25 26 23 21 12 358 354 344 334 327 327 332
181 177 174 154 142 133 120 116 118 97 94 104 70 58 54 54 55 51 48 25 49 29 17 22 32 27 23 16 1 19 22 26 22 25 27 16 1 358 356 359 350 348 327
181 189 164 155 145 131 134 125 115 114 107 95 80 59 47 52 43 33 36 32 33 20 32 28 32 28 24 14 358 24 22 23 25 19 36 18 6 1 4 8 359 353 345
183 187 170 151 136 145 144 138 136 119 100 75 66 61 50 54 50 41 41 36 37 32 31 40 29 39 19 9 357 23 25 25 27 18 31 26 10 4 3 9 9 358 358
185 181 171 144 140 149 152 139 142 142 118 102 90 70 69 54 52 44 43 42 41 29 28 44 40 23 27 9 358 2 40 29 30 18 14 31 18 9 12 16 16 11 11
185 175 171 148 156 163 157 159 146 118 93 92 85 74 62 60 52 48 51 47 50 43 31 28 47 31 24 13 8 20 31 35 39 23 13 20 18 9 11 20 19 25 16
174 173 153 154 145 159 142 158 131 122 113 107 98 86 76 73 55 50 55 56 51 54 46 33 35 34 24 20 13 44 32 44 47 38 21 16 13 12 9 12 16 17 23
161 160 137 127 132 141 146 158 133 113 107 93 82 77 81 77 77 65 53 71 71 61 55 48 37 34 25 28 20 17 37 43 43 45 30 18 10 15 18 9 13 8 7
133 122 121 121 132 152 171 142 126 115 106 95 87 87 80 73 78 70 63 55 61 71 72 58 51 40 24 33 32 23 12 29 40 32 20 24 11 19 23 13 10 7 5
117 120 123 127 127 140 186 132 131 102 97 119 128 118 103 85 76 88 83 67 75 59 83 74 54 50 29 29 35 38 14 26 34 28 17 18 24 21 24 24 13 14 359
119 120 120 120 125 137 105 103 108 119 127 98 89 107 111 114 114 100 79 77 69 73 69 84 68 48 40 23 31 33 25 20 25 22 16 7 24 23 27 29 23 19 355
122 124 122 128 138 140 124 117 122 146 110 112 112 113 104 107 105 107 104 69 85 68 61 63 65 54 35 28 25 28 30 22 12 25 11 4 26 26 25 27 27 21 9
127 129 131 148 159 164 158 151 151 128 123 116 118 121 96 101 97 70 57 51 54 47 58 57 48 47 34 21 21 20 20 15 355 20 28 24 23 28 22 25 28 20 15
141 147 156 165 165 163 164 150 155 151 150 150 153 150 120 83 79 89 64 52 35 47 39 57 44 43 28 11 4 3 355 348 350 5 14 10 15 21 16 16 20 23 21
149 162 170 164 160 157 143 157 165 163 148 139 138 141 129 106 87 59 91 91 69 70 67 39 66 44 19 8 11 7 344 357 343 17 8 12 9 15 25 21 17 21 17
158 166 161 141 142 140 140 151 145 140 143 146 148 140 131 141 136 128 102 97 112 96 87 76 62 17 19 16 18 8 13 24 22 21 25 20 16 16 18 14 11 7 10